Canadian, TX

5:56 AM CST on February 11, 2016 (GMT -0600)
Hemphill County

Weather History for KHHF - May, 2013

Change the Weather History Date:

Wednesday, May 22, 2013

  Actual Average (KPPA) Record (KPPA)
Temperature  
Mean Temperature 66 °F -  
Max Temperature 87 °F 79 °F 96 °F (1966)
Min Temperature 46 °F 53 °F 43 °F (1967)
Cooling Degree Days 2    
Growing Degree Days 16 (Base 50)    
Moisture  
Dew Point 45 °F    
Average Humidity 53    
Maximum Humidity 95    
Minimum Humidity 20    
Precipitation  
Precipitation 0.00 in - - ()
Sea Level Pressure  
Sea Level Pressure 29.89 in    
Wind  
Wind Speed 5 mph (SSE)    
Max Wind Speed 17 mph    
Max Gust Speed 25 mph    
Visibility 10 miles    
Events      
Averages and records for this station are not official NWS values.
T = Trace of Precipitation, MM = Missing Value Source: NWS Daily Summary

Daily Weather History Graph

Daily Weather History Graph

Search for Another Location

Airport or City:

Trip Planner

Search our weather history database for the weather conditions in past years. The results will help you decide how hot, cold, wet, or windy it might be!

Date:

Astronomy

May. 22, 2013 Rise Set
Actual Time 6:31 AM CDT 8:45 PM CDT
Civil Twilight 6:02 AM CDT 9:15 PM CDT
Nautical Twilight 5:26 AM CDT 9:50 PM CDT
Astronomical Twilight 4:47 AM CDT 10:29 PM CDT
Moon 6:14 PM CDT (5/22) 4:30 AM CDT (5/22)
Length of Visible Light 15h 13m
Length of Day
14h 14m
Waxing Gibbous, 91% of the Moon is Illuminated
May 22
Waxing Gibbous
May 24
Full
May 31
Last Quarter
Jun 8
New
Jun 16
First Quarter

Hourly Weather History & Observations

Time (CDT) Temp. Dew Point Humidity Pressure Visibility Wind Dir Wind Speed Gust Speed Precip Events Conditions
12:15 AM 57.7 °F 50.7 °F 77% 29.85 in 10.0 mi Calm Calm - N/A   Clear
12:35 AM 53.6 °F 50.0 °F 88% 29.87 in 10.0 mi SW 5.8 mph - N/A   Clear
12:55 AM 54.7 °F 50.0 °F 84% 29.87 in 10.0 mi SSW 5.8 mph - N/A   Clear
1:15 AM 55.0 °F 50.2 °F 84% 29.87 in 10.0 mi SW 4.6 mph - N/A   Clear
1:35 AM 52.2 °F 49.5 °F 91% 29.88 in 10.0 mi WSW 4.6 mph - N/A   Clear
1:55 AM 52.5 °F 49.6 °F 90% 29.88 in 10.0 mi SSW 4.6 mph - N/A   Clear
2:15 AM 52.3 °F 49.1 °F 89% 29.88 in 10.0 mi Calm Calm - N/A   Clear
2:35 AM 52.9 °F 48.9 °F 86% 29.88 in 10.0 mi Calm Calm - N/A   Clear
2:55 AM 52.3 °F 48.4 °F 86% 29.87 in 10.0 mi Calm Calm - N/A   Clear
3:15 AM 52.3 °F 48.6 °F 87% 29.87 in 10.0 mi Calm Calm - N/A   Clear
3:35 AM 51.3 °F 48.4 °F 90% 29.88 in 10.0 mi Calm Calm - N/A   Clear
3:55 AM 50.0 °F 47.8 °F 92% 29.89 in 10.0 mi Calm Calm - N/A   Clear
4:15 AM 49.1 °F 46.9 °F 92% 29.89 in 10.0 mi South 3.5 mph - N/A   Clear
4:35 AM 49.1 °F 46.9 °F 92% 29.89 in 10.0 mi South 3.5 mph - N/A   Clear
4:55 AM 47.8 °F 45.9 °F 93% 29.90 in 10.0 mi Calm Calm - N/A   Clear
5:15 AM 47.7 °F 45.5 °F 92% 29.91 in 10.0 mi SSW 3.5 mph - N/A   Clear
5:35 AM 47.5 °F 45.7 °F 93% 29.91 in 10.0 mi WSW 3.5 mph - N/A   Clear
5:55 AM 47.3 °F 45.9 °F 95% 29.92 in 10.0 mi SW 3.5 mph - N/A   Clear
6:15 AM 48.2 °F 46.4 °F 93% 29.92 in 10.0 mi SW 5.8 mph - N/A   Clear
6:35 AM 48.6 °F 45.9 °F 90% 29.93 in 10.0 mi SW 3.5 mph - N/A   Clear
6:55 AM 47.8 °F 44.8 °F 89% 29.94 in 10.0 mi Calm Calm - N/A   Clear
7:15 AM 46.2 °F 43.9 °F 92% 29.95 in 10.0 mi Calm Calm - N/A   Clear
7:35 AM 48.4 °F 46.2 °F 92% 29.95 in 10.0 mi Calm Calm - N/A   Clear
7:55 AM 50.4 °F 47.7 °F 90% 29.95 in 10.0 mi Calm Calm - N/A   Clear
8:15 AM 53.1 °F 47.8 °F 82% 29.95 in 10.0 mi Calm Calm - N/A   Clear
8:35 AM 55.2 °F 48.2 °F 77% 29.96 in 10.0 mi Calm Calm - N/A   Clear
8:55 AM 57.9 °F 46.8 °F 66% 29.96 in 10.0 mi Calm Calm - N/A   Clear
9:15 AM 60.4 °F 46.2 °F 59% 29.97 in 10.0 mi Calm Calm - N/A   Clear
9:35 AM 62.1 °F 46.6 °F 57% 29.97 in 10.0 mi ENE 3.5 mph - N/A   Clear
9:55 AM 63.3 °F 47.1 °F 56% 29.97 in 10.0 mi Calm Calm - N/A   Clear
10:15 AM 65.1 °F 46.8 °F 51% 29.97 in 10.0 mi ENE 8.1 mph - N/A   Clear
10:35 AM 67.5 °F 46.0 °F 46% 29.97 in 10.0 mi East 4.6 mph - N/A   Clear
10:55 AM 68.4 °F 45.3 °F 44% 29.96 in 10.0 mi East 5.8 mph - N/A   Clear
11:15 AM 70.0 °F 45.0 °F 41% 29.96 in 10.0 mi SE 8.1 mph - N/A   Clear
11:35 AM 71.1 °F 45.1 °F 39% 29.97 in 10.0 mi SE 6.9 mph - N/A   Clear
11:55 AM 71.8 °F 45.1 °F 38% 29.96 in 10.0 mi East 6.9 mph - N/A   Clear
12:15 PM 73.0 °F 45.5 °F 37% 29.96 in 10.0 mi Calm Calm - N/A   Clear
12:35 PM 73.8 °F 45.5 °F 36% 29.95 in 10.0 mi East 5.8 mph - N/A   Clear
12:55 PM 76.1 °F 46.4 °F 35% 29.95 in 10.0 mi East 5.8 mph - N/A   Clear
1:15 PM 77.4 °F 47.1 °F 34% 29.94 in 10.0 mi Calm Calm - N/A   Clear
1:35 PM 78.8 °F 46.4 °F 32% 29.92 in 10.0 mi South 8.1 mph - N/A   Clear
1:55 PM 79.7 °F 46.4 °F 31% 29.91 in 10.0 mi South 11.5 mph 16.1 mph N/A   Clear
2:15 PM 80.1 °F 46.6 °F 31% 29.91 in 10.0 mi South 11.5 mph 18.4 mph N/A   Clear
2:35 PM 80.4 °F 46.9 °F 31% 29.89 in 10.0 mi SSE 15.0 mph 18.4 mph N/A   Clear
2:55 PM 82.4 °F 47.3 °F 29% 29.89 in 10.0 mi South 12.7 mph 18.4 mph N/A   Clear
3:15 PM 83.5 °F 46.8 °F 28% 29.88 in 10.0 mi SSE 16.1 mph 20.7 mph N/A   Clear
3:35 PM 84.0 °F 43.7 °F 24% 29.87 in 10.0 mi SW 16.1 mph - N/A   Clear
3:55 PM 85.5 °F 43.9 °F 23% 29.86 in 10.0 mi SW 17.3 mph 20.7 mph N/A   Clear
4:15 PM 85.8 °F 42.8 °F 22% 29.85 in 10.0 mi SSW 11.5 mph 20.7 mph N/A   Clear
4:35 PM 85.6 °F 43.0 °F 22% 29.84 in 10.0 mi SSW 10.4 mph 18.4 mph N/A   Clear
4:55 PM 86.2 °F 44.4 °F 23% 29.84 in 10.0 mi South 12.7 mph 21.9 mph N/A   Clear
5:15 PM 86.4 °F 44.4 °F 23% 29.83 in 10.0 mi South 11.5 mph 25.3 mph N/A   Clear
5:35 PM 87.1 °F 43.5 °F 22% 29.82 in 10.0 mi South 15.0 mph 23.0 mph N/A   Clear
5:55 PM 86.5 °F 42.4 °F 21% 29.82 in 10.0 mi SSE 16.1 mph - N/A   Clear
6:15 PM 86.7 °F 42.1 °F 21% 29.81 in 10.0 mi SSE 16.1 mph - N/A   Clear
6:35 PM 86.9 °F 40.6 °F 20% 29.81 in 10.0 mi SSE 12.7 mph 19.6 mph N/A   Clear
6:55 PM 86.9 °F 40.8 °F 20% 29.81 in 10.0 mi South 13.8 mph 18.4 mph N/A   Clear
7:15 PM 86.9 °F 41.5 °F 20% 29.80 in 10.0 mi SE 15.0 mph 19.6 mph N/A   Clear
7:35 PM 86.4 °F 40.8 °F 20% 29.80 in 10.0 mi SSE 12.7 mph 16.1 mph N/A   Clear
7:55 PM 85.1 °F 40.5 °F 21% 29.81 in 10.0 mi SE 13.8 mph - N/A   Clear
8:15 PM 83.7 °F 40.5 °F 22% 29.81 in 10.0 mi SE 11.5 mph - N/A   Clear
8:35 PM 81.7 °F 40.6 °F 23% 29.82 in 10.0 mi SE 11.5 mph - N/A   Clear
8:55 PM 79.0 °F 40.6 °F 25% 29.82 in 10.0 mi SE 10.4 mph - N/A   Clear
9:15 PM 77.5 °F 41.0 °F 27% 29.83 in 10.0 mi SE 10.4 mph - N/A   Clear
9:35 PM 75.9 °F 41.7 °F 29% 29.84 in 10.0 mi ESE 9.2 mph - N/A   Clear
9:55 PM 74.5 °F 42.3 °F 31% 29.85 in 10.0 mi ESE 8.1 mph - N/A   Clear
10:15 PM 72.1 °F 42.8 °F 35% 29.86 in 10.0 mi SE 10.4 mph - N/A   Clear
10:35 PM 72.5 °F 43.7 °F 36% 29.87 in 10.0 mi ESE 10.4 mph - N/A   Clear
10:55 PM 70.2 °F 43.9 °F 39% 29.88 in 10.0 mi ESE 11.5 mph - N/A   Clear
11:15 PM 70.0 °F 44.6 °F 40% 29.88 in 10.0 mi ESE 11.5 mph - N/A   Clear
11:35 PM 69.6 °F 45.5 °F 42% 29.88 in 10.0 mi ESE 11.5 mph - N/A   Clear
11:55 PM 68.2 °F 47.1 °F 47% 29.88 in 10.0 mi ESE 11.5 mph - N/A   Clear